Flag for Norway Weather past 2 weeks in Tromsø, Norway

Now
49 °F

Passing clouds.


Feels Like: 45 °F
Forecast: 43 / 48 °F
Wind: 10 mph from Southwest

Location: Tromso / Langnes

Current Time: Oct 2, 2014 at 4:42:24 PM

Latest Report: Oct 2, 2014 at 4:00 PM


Visibility: 18 mi

Pressure: 30.03 "Hg

Humidity: 69%

Dew point: 39 °F

Location of TromsøLocation

Historic Weather in Tromsø — Graph

°F

Tromsø temperature yesterday

Maximum temperature yesterday: 47 °F (at 4:00 PM)
Minimum temperature yesterday: 40 °F (at 11:00 PM)
Average temperature yesterday: 44 °F

Past Weeks' High & Low Weather Summary

 TemperatureHumidityPressure
High51 °F (Sep 17, 3:00 PM)96% (Sep 22, 4:00 AM)30.31 "Hg (Sep 22, 4:00 AM)
Low30 °F (Sep 23, 4:00 AM)53% (Sep 23, 6:00 PM)28.64 "Hg (Sep 27, 7:00 AM)
Average41 °F77%29.76 "Hg
* Reported Sep 17 3:00 PM — Oct 2 3:00 PM, Tromsø, Weather by CustomWeather, © 2014

Note: Actual official high and low records may vary slightly from our data, if they occured in-between our weather recording intervals... More about our weather records

Advertising

Tromsø weather history for previous 24 hours

 ConditionsComfort  
Time TempWeatherWind HumidityBarometerVisibility
3:00 PM
Oct 2
50 °FOvercast.8 mph74%30.01 "Hg19 mi
2:00 PM49 °FScattered clouds.7 mph77%30.01 "Hg17 mi
1:00 PM50 °FScattered clouds.8 mph71%30.00 "Hg25 mi
12:00 PM49 °FSunny.7 mph78%29.99 "Hg22 mi
11:00 AM47 °FOvercast.6 mph87%29.99 "Hg15 mi
10:00 AM47 °FOvercast.5 mph89%29.98 "Hg22 mi
9:00 AM46 °FOvercast.7 mph88%29.96 "Hg7 mi
8:00 AM45 °FOvercast.9 mph89%29.92 "Hg9 mi
7:00 AM45 °FOvercast.8 mph86%29.90 "Hg10 mi
6:00 AM46 °FOvercast.9 mph81%29.89 "Hg10 mi
5:00 AM49 °FOvercast.7 mph66%29.88 "Hg25 mi
4:00 AM47 °FOvercast.8 mph72%29.88 "Hg31 mi
3:00 AM45 °FOvercast.3 mph83%29.87 "Hg25 mi
2:00 AM43 °FClear.2 mph84%29.88 "Hg25 mi
1:00 AM41 °FClear.1 mph90%29.89 "Hg14 mi
12:00 AM41 °FClear.1 mph90%29.90 "Hg15 mi
11:00 PM
Oct 1
40 °FClear.1 mph89%29.90 "Hg10 mi
10:00 PM42 °FClear.1 mph88%29.90 "Hg10 mi
9:00 PM42 °FClear.1 mph86%29.93 "Hg13 mi
8:00 PM42 °FClear.1 mph84%29.95 "Hg8 mi
7:00 PM44 °FPassing clouds.2 mph80%29.98 "Hg12 mi
6:00 PM47 °FSunny.2 mph74%30.01 "Hg22 mi
5:00 PM47 °FOvercast.No wind74%30.03 "Hg25 mi
4:00 PM47 °FOvercast.1 mph71%30.06 "Hg28 mi
Weather by CustomWeather, © 2014

See weather overviewHow to use our weather pages